Simultaneous Nadir Overpasses (SNOs) Predictions

Prediction of SNOs between FY3D and AQUA Satellite Orbit:

Table of predicted SNOs for the next 14.0 days since TLE Epoch: 5/30/2020
Index Date (FY3D) Time (FY3D) Lat,Lon (FY3D) SZA (FY3D ) Date (AQUA) Time (AQUA) Lat,Lon (AQUA) SZA (AQUA ) Distance(km) Time Diff (sec)
1 05/30/2020 16:48:52 65.75, 150.23 86.57 05/30/2020 16:49:06 65.75, 150.22 86.55 0.17 14
2 05/30/2020 17:38:34 -69.21, -38.29 97.04 05/30/2020 17:37:33 -69.21, -38.25 96.99 1.40 61
3 06/02/2020 09:05:35 64.68, -94.93 87.35 06/02/2020 09:05:54 64.69, -94.89 87.31 2.27 19
4 06/02/2020 09:54:56 -69.30, 77.75 97.46 06/02/2020 09:54:01 -69.29, 77.73 97.39 0.89 55
5 06/05/2020 01:21:56 64.82, 21.11 86.93 06/05/2020 01:22:21 64.82, 21.10 86.91 0.38 25
6 06/05/2020 02:11:33 -68.58,-167.32 96.98 06/05/2020 02:10:43 -68.59,-167.29 96.94 1.42 50
7 06/07/2020 17:38:35 63.91, 136.16 87.65 06/07/2020 17:39:05 63.91, 136.19 87.61 1.29 30
8 06/07/2020 18:27:51 -68.83, -51.08 97.47 06/07/2020 18:27:07 -68.82, -51.12 97.41 1.74 44
9 06/10/2020 09:54:52 64.27,-107.60 87.11 06/10/2020 09:55:28 64.26,-107.63 87.08 2.01 36
10 06/10/2020 10:44:25 -68.27, 64.09 97.06 06/10/2020 10:43:46 -68.27, 64.08 97.01 0.38 39
11 06/13/2020 02:11:29 63.52, 7.63 87.75 06/13/2020 02:12:10 63.51, 7.61 87.71 1.09 41




NCC Satellite Simultaneous Nadir Overpasses (SNOs) Prediction Service
